| time (UTC) | temp C | wind direction | speed KPH | gust KPH | rain 1hr cm | rain 24hr cm | rain mn cm | humidity % | barometer mb |
| 20260505052003 | 17 | 195 | 3.2 | 9.7 | 0.00 | 0.51 | 0.00 | 68 | 1007.5 |
| 20260505051503 | 17 | 192 | 3.2 | 9.7 | 0.00 | 0.51 | 0.00 | 68 | 1007.6 |
| 20260505051003 | 17 | 195 | 4.8 | 11.3 | 0.00 | 0.51 | 0.00 | 67 | 1007.5 |
| 20260505050503 | 17 | 203 | 4.8 | 12.9 | 0.00 | 0.51 | 0.00 | 67 | 1007.6 |
| 20260505041503 | 17 | 204 | 4.8 | 11.3 | 0.00 | 0.51 | 0.00 | 67 | 1007.5 |
| 20260505041003 | 18 | 202 | 4.8 | 12.9 | 0.00 | 0.51 | 0.00 | 66 | 1007.4 |
| 20260505040503 | 18 | 200 | 4.8 | 12.9 | 0.00 | 0.51 | 0.00 | 66 | 1007.3 |
| 20260505040003 | 18 | 200 | 4.8 | 12.9 | 0.00 | 0.51 | 0.00 | 66 | 1007.3 |
| 20260505035503 | 18 | 199 | 3.2 | 11.3 | 0.00 | 0.51 | 0.51 | 66 | 1007.2 |
| 20260505035003 | 18 | 201 | 3.2 | 9.7 | 0.00 | 0.51 | 0.51 | 65 | 1007.2 |
| 20260505034503 | 18 | 209 | 3.2 | 8.0 | 0.00 | 0.51 | 0.51 | 65 | 1007.2 |
| 20260505034003 | 18 | 200 | 3.2 | 9.7 | 0.00 | 0.51 | 0.51 | 65 | 1007.2 |
| 20260505033503 | 18 | 200 | 3.2 | 9.7 | 0.00 | 0.51 | 0.51 | 65 | 1007.1 |
| 20260505033003 | 18 | 203 | 3.2 | 9.7 | 0.00 | 0.51 | 0.51 | 65 | 1007.2 |
| 20260505032503 | 18 | 199 | 3.2 | 11.3 | 0.00 | 0.51 | 0.51 | 65 | 1007.1 |
| 20260505032024 | 18 | 199 | 3.2 | 11.3 | 0.00 | 0.51 | 0.51 | 65 | 1007.1 |
| 20260505031503 | 18 | 203 | 4.8 | 12.9 | 0.00 | 0.51 | 0.51 | 66 | 1007.1 |
| 20260505031003 | 18 | 205 | 4.8 | 12.9 | 0.00 | 0.51 | 0.51 | 66 | 1007.1 |
| 20260505030503 | 18 | 204 | 3.2 | 11.3 | 0.00 | 0.51 | 0.51 | 65 | 1007.0 |
| 20260505030024 | 18 | 203 | 3.2 | 11.3 | 0.00 | 0.51 | 0.51 | 66 | 1006.9 |
| 20260505025524 | 18 | 206 | 4.8 | 11.3 | 0.00 | 0.51 | 0.51 | 66 | 1006.8 |
| 20260505025003 | 18 | 199 | 4.8 | 11.3 | 0.00 | 0.51 | 0.51 | 66 | 1006.8 |
| 20260505024503 | 18 | 195 | 3.2 | 9.7 | 0.00 | 0.51 | 0.51 | 65 | 1006.7 |
| 20260505024003 | 18 | 198 | 3.2 | 9.7 | 0.00 | 0.51 | 0.51 | 65 | 1006.5 |
| 20260505023503 | 18 | 189 | 3.2 | 11.3 | 0.00 | 0.51 | 0.51 | 64 | 1006.4 |
| 20260505023003 | 18 | 184 | 3.2 | 14.5 | 0.00 | 0.51 | 0.51 | 64 | 1006.3 |
| 20260505022503 | 18 | 185 | 3.2 | 14.5 | 0.00 | 0.51 | 0.51 | 64 | 1006.3 |
| 20260505022003 | 18 | 191 | 3.2 | 11.3 | 0.00 | 0.51 | 0.51 | 63 | 1006.2 |
| 20260505021503 | 18 | 194 | 4.8 | 11.3 | 0.00 | 0.51 | 0.51 | 63 | 1006.1 |
| 20260505021024 | 18 | 194 | 3.2 | 11.3 | 0.00 | 0.51 | 0.51 | 64 | 1006.1 |
| 20260505020503 | 18 | 188 | 3.2 | 11.3 | 0.00 | 0.51 | 0.51 | 64 | 1006.1 |
| 20260505020024 | 18 | 180 | 3.2 | 9.7 | 0.00 | 0.51 | 0.51 | 64 | 1006.0 |
| 20260505015503 | 18 | 178 | 3.2 | 9.7 | 0.00 | 0.51 | 0.51 | 63 | 1006.0 |
| 20260505015003 | 19 | 186 | 3.2 | 9.7 | 0.00 | 0.51 | 0.51 | 63 | 1006.0 |
| 20260505014503 | 19 | 184 | 3.2 | 9.7 | 0.00 | 0.51 | 0.51 | 64 | 1006.0 |
| 20260505014003 | 19 | 186 | 3.2 | 9.7 | 0.00 | 0.51 | 0.51 | 63 | 1005.9 |
| 20260505013524 | 19 | 188 | 3.2 | 9.7 | 0.00 | 0.51 | 0.51 | 64 | 1005.9 |
| 20260505013003 | 19 | 181 | 1.6 | 8.0 | 0.00 | 0.51 | 0.51 | 63 | 1005.9 |
| 20260505012503 | 19 | 178 | 1.6 | 4.8 | 0.00 | 0.51 | 0.51 | 62 | 1005.9 |
| 20260505012003 | 19 | 175 | 1.6 | 4.8 | 0.00 | 0.51 | 0.51 | 63 | 1005.9 |
| 20260505011503 | 20 | 181 | 1.6 | 8.0 | 0.00 | 0.51 | 0.51 | 63 | 1006.0 |
| 20260505011003 | 20 | 191 | 1.6 | 8.0 | 0.00 | 0.51 | 0.51 | 62 | 1005.9 |
| 20260505010524 | 20 | 187 | 1.6 | 6.4 | 0.00 | 0.51 | 0.51 | 62 | 1005.9 |
| 20260505010003 | 20 | 188 | 1.6 | 6.4 | 0.00 | 0.51 | 0.51 | 61 | 1005.9 |
| 20260505005503 | 20 | 194 | 1.6 | 6.4 | 0.00 | 0.51 | 0.51 | 61 | 1005.9 |
| 20260505005004 | 20 | 193 | 3.2 | 9.7 | 0.00 | 0.51 | 0.51 | 60 | 1005.9 |
| 20260505004524 | 20 | 194 | 1.6 | 9.7 | 0.00 | 0.51 | 0.51 | 60 | 1005.8 |
| 20260505004003 | 21 | 191 | 1.6 | 8.0 | 0.00 | 0.51 | 0.51 | 59 | 1005.8 |
| 20260505003503 | 21 | 182 | 1.6 | 8.0 | 0.00 | 0.51 | 0.51 | 58 | 1005.7 |
| 20260505003024 | 21 | 182 | 1.6 | 6.4 | 0.00 | 0.51 | 0.51 | 57 | 1005.7 |
| 20260505002503 | 21 | 192 | 3.2 | 11.3 | 0.00 | 0.51 | 0.51 | 57 | 1005.8 |
| 20260505002003 | 22 | 190 | 3.2 | 9.7 | 0.00 | 0.51 | 0.51 | 57 | 1005.8 |
| 20260505001503 | 22 | 188 | 3.2 | 11.3 | 0.00 | 0.51 | 0.51 | 55 | 1005.9 |
| 20260505001003 | 22 | 188 | 3.2 | 11.3 | 0.00 | 0.51 | 0.51 | 55 | 1006.0 |
| 20260505000503 | 22 | 194 | 4.8 | 11.3 | 0.00 | 0.51 | 0.51 | 54 | 1006.0 |
| 20260505000003 | 22 | 202 | 4.8 | 17.7 | 0.00 | 0.51 | 0.51 | 54 | 1006.1 |
| 20260504235503 | 22 | 206 | 4.8 | 17.7 | 0.00 | 0.51 | 0.51 | 53 | 1006.2 |
| 20260504235003 | 23 | 213 | 4.8 | 16.1 | 0.00 | 0.51 | 0.51 | 53 | 1006.2 |
| 20260504234503 | 23 | 211 | 4.8 | 16.1 | 0.00 | 0.51 | 0.51 | 53 | 1006.3 |
| 20260504234003 | 23 | 209 | 6.4 | 16.1 | 0.00 | 0.51 | 0.51 | 52 | 1006.3 |
| 20260504233524 | 23 | 212 | 6.4 | 16.1 | 0.00 | 0.51 | 0.51 | 52 | 1006.4 |
| 20260504233003 | 23 | 210 | 8.0 | 22.5 | 0.00 | 0.51 | 0.51 | 51 | 1006.5 |
| 20260504232524 | 23 | 213 | 6.4 | 22.5 | 0.00 | 0.51 | 0.51 | 50 | 1006.6 |
| 20260504232003 | 24 | 214 | 8.0 | 25.7 | 0.00 | 0.51 | 0.51 | 50 | 1006.7 |
| 20260504231524 | 24 | 211 | 8.0 | 25.7 | 0.00 | 0.51 | 0.51 | 49 | 1006.6 |
| 20260504231003 | 24 | 216 | 6.4 | 25.7 | 0.00 | 0.51 | 0.51 | 50 | 1006.8 |
| 20260504230503 | 24 | 218 | 6.4 | 25.7 | 0.00 | 0.51 | 0.51 | 50 | 1006.8 |
| 20260504230003 | 24 | 218 | 6.4 | 19.3 | 0.00 | 0.51 | 0.51 | 48 | 1006.8 |
| 20260504225503 | 24 | 217 | 6.4 | 19.3 | 0.00 | 0.51 | 0.51 | 50 | 1006.8 |
| 20260504225003 | 24 | 218 | 8.0 | 24.1 | 0.00 | 0.51 | 0.51 | 49 | 1006.9 |
| 20260504224503 | 24 | 224 | 9.7 | 24.1 | 0.00 | 0.51 | 0.51 | 49 | 1007.0 |
| 20260504224003 | 24 | 226 | 8.0 | 24.1 | 0.00 | 0.51 | 0.51 | 48 | 1007.1 |
| 20260504223503 | 24 | 223 | 8.0 | 20.9 | 0.00 | 0.51 | 0.51 | 47 | 1007.1 |
| 20260504223003 | 24 | 227 | 9.7 | 24.1 | 0.00 | 0.51 | 0.51 | 46 | 1007.2 |
| 20260504222503 | 25 | 226 | 9.7 | 24.1 | 0.00 | 0.51 | 0.51 | 48 | 1007.1 |
| 20260504222024 | 25 | 223 | 9.7 | 27.4 | 0.00 | 0.51 | 0.51 | 45 | 1007.2 |
| 20260504221503 | 25 | 223 | 9.7 | 27.4 | 0.00 | 0.51 | 0.51 | 45 | 1007.1 |
| 20260504221003 | 25 | 220 | 11.3 | 22.5 | 0.00 | 0.51 | 0.51 | 46 | 1007.2 |
| 20260504220524 | 25 | 220 | 11.3 | 24.1 | 0.00 | 0.51 | 0.51 | 45 | 1007.1 |
| 20260504220003 | 25 | 220 | 9.7 | 25.7 | 0.00 | 0.51 | 0.51 | 47 | 1007.2 |
| 20260504215503 | 25 | 221 | 9.7 | 27.4 | 0.00 | 0.51 | 0.51 | 48 | 1007.3 |
| 20260504215003 | 24 | 224 | 9.7 | 27.4 | 0.00 | 0.51 | 0.51 | 50 | 1007.3 |
| 20260504214503 | 24 | 229 | 8.0 | 24.1 | 0.00 | 0.51 | 0.51 | 50 | 1007.3 |
| 20260504214003 | 24 | 229 | 6.4 | 22.5 | 0.00 | 0.51 | 0.51 | 50 | 1007.3 |
| 20260504213503 | 25 | 235 | 6.4 | 20.9 | 0.00 | 0.51 | 0.51 | 49 | 1007.3 |
| 20260504213003 | 25 | 237 | 8.0 | 24.1 | 0.00 | 0.51 | 0.51 | 49 | 1007.3 |
| 20260504212503 | 25 | 225 | 8.0 | 24.1 | 0.00 | 0.51 | 0.51 | 46 | 1007.3 |
| 20260504212003 | 25 | 218 | 8.0 | 24.1 | 0.00 | 0.51 | 0.51 | 47 | 1007.2 |
| 20260504211524 | 25 | 223 | 8.0 | 20.9 | 0.00 | 0.51 | 0.51 | 48 | 1007.3 |
| 20260504211003 | 25 | 225 | 8.0 | 24.1 | 0.00 | 0.51 | 0.51 | 48 | 1007.3 |
| 20260504210524 | 26 | 220 | 8.0 | 24.1 | 0.00 | 0.51 | 0.51 | 48 | 1007.2 |
| 20260504210003 | 26 | 216 | 8.0 | 17.7 | 0.00 | 0.51 | 0.51 | 47 | 1007.2 |
| 20260504205503 | 26 | 221 | 6.4 | 14.5 | 0.00 | 0.51 | 0.51 | 47 | 1007.2 |
| 20260504205003 | 26 | 221 | 6.4 | 22.5 | 0.00 | 0.51 | 0.51 | 50 | 1007.3 |
| 20260504204503 | 26 | 223 | 6.4 | 22.5 | 0.00 | 0.51 | 0.51 | 49 | 1007.3 |
| 20260504204003 | 26 | 233 | 6.4 | 25.7 | 0.00 | 0.51 | 0.51 | 49 | 1007.3 |
| 20260504203503 | 25 | 230 | 8.0 | 25.7 | 0.00 | 0.51 | 0.51 | 50 | 1007.4 |
| 20260504203024 | 25 | 229 | 9.7 | 22.5 | 0.00 | 0.51 | 0.51 | 47 | 1007.4 |
| 20260504202503 | 25 | 232 | 11.3 | 30.6 | 0.00 | 0.51 | 0.51 | 47 | 1007.4 |
| 20260504202003 | 25 | 227 | 12.9 | 30.6 | 0.00 | 0.51 | 0.51 | 47 | 1007.5 |
| 20260504201503 | 25 | 222 | 9.7 | 27.4 | 0.00 | 0.51 | 0.51 | 50 | 1007.6 |
| 20260504201003 | 25 | 223 | 8.0 | 20.9 | 0.00 | 0.51 | 0.51 | 51 | 1007.7 |
| 20260504200503 | 25 | 226 | 8.0 | 25.7 | 0.00 | 0.51 | 0.51 | 49 | 1007.8 |
| 20260504200003 | 25 | 227 | 9.7 | 25.7 | 0.00 | 0.51 | 0.51 | 50 | 1007.9 |
| 20260504195503 | 25 | 224 | 12.9 | 29.0 | 0.00 | 0.51 | 0.51 | 54 | 1008.1 |
| 20260504195003 | 25 | 221 | 11.3 | 29.0 | 0.00 | 0.51 | 0.51 | 51 | 1008.1 |
| 20260504194503 | 25 | 222 | 11.3 | 24.1 | 0.00 | 0.51 | 0.51 | 51 | 1008.2 |
| 20260504194003 | 25 | 224 | 9.7 | 24.1 | 0.00 | 0.51 | 0.51 | 49 | 1008.3 |
| 20260504193503 | 25 | 223 | 6.4 | 20.9 | 0.00 | 0.51 | 0.51 | 51 | 1008.4 |
| 20260504193003 | 25 | 221 | 6.4 | 17.7 | 0.00 | 0.51 | 0.51 | 56 | 1008.4 |
| 20260504192503 | 25 | 214 | 9.7 | 29.0 | 0.00 | 0.51 | 0.51 | 55 | 1008.5 |
| 20260504192003 | 25 | 215 | 9.7 | 29.0 | 0.00 | 0.51 | 0.51 | 56 | 1008.5 |
| 20260504191503 | 25 | 218 | 8.0 | 22.5 | 0.00 | 0.51 | 0.51 | 54 | 1008.6 |
| 20260504191003 | 25 | 218 | 8.0 | 24.1 | 0.00 | 0.51 | 0.51 | 53 | 1008.7 |
| 20260504190503 | 25 | 223 | 8.0 | 24.1 | 0.00 | 0.51 | 0.51 | 57 | 1008.8 |
| 20260504190003 | 25 | 216 | 8.0 | 24.1 | 0.00 | 0.51 | 0.51 | 54 | 1008.7 |
| 20260504185503 | 24 | 214 | 8.0 | 24.1 | 0.00 | 0.51 | 0.51 | 55 | 1008.8 |
| 20260504185024 | 24 | 216 | 8.0 | 24.1 | 0.00 | 0.51 | 0.51 | 56 | 1008.7 |
| 20260504184503 | 24 | 211 | 8.0 | 25.7 | 0.00 | 0.51 | 0.51 | 54 | 1008.7 |
| 20260504184003 | 24 | 209 | 8.0 | 25.7 | 0.00 | 0.51 | 0.51 | 56 | 1008.7 |
| 20260504183503 | 23 | 208 | 9.7 | 22.5 | 0.00 | 0.51 | 0.51 | 62 | 1008.7 |
| 20260504183003 | 23 | 206 | 9.7 | 22.5 | 0.00 | 0.51 | 0.51 | 57 | 1008.7 |
| 20260504182503 | 23 | 203 | 8.0 | 22.5 | 0.00 | 0.51 | 0.51 | 57 | 1008.7 |
| 20260504182003 | 23 | 205 | 8.0 | 22.5 | 0.00 | 0.51 | 0.51 | 59 | 1008.8 |
| 20260504181503 | 23 | 213 | 8.0 | 19.3 | 0.00 | 0.51 | 0.51 | 59 | 1008.7 |
| 20260504181003 | 23 | 214 | 8.0 | 25.7 | 0.00 | 0.51 | 0.51 | 59 | 1008.8 |
| 20260504180503 | 23 | 217 | 9.7 | 29.0 | 0.00 | 0.51 | 0.51 | 56 | 1008.9 |
| 20260504180003 | 23 | 217 | 8.0 | 29.0 | 0.00 | 0.51 | 0.51 | 57 | 1008.8 |
| 20260504175503 | 23 | 218 | 6.4 | 20.9 | 0.00 | 0.51 | 0.51 | 60 | 1008.8 |
| 20260504175003 | 23 | 212 | 8.0 | 24.1 | 0.00 | 0.51 | 0.51 | 59 | 1008.9 |
| 20260504174503 | 22 | 209 | 9.7 | 24.1 | 0.00 | 0.51 | 0.51 | 58 | 1008.8 |
| 20260504174024 | 22 | 218 | 8.0 | 24.1 | 0.00 | 0.51 | 0.51 | 58 | 1008.9 |
| 20260504173503 | 22 | 217 | 8.0 | 27.4 | 0.00 | 0.51 | 0.51 | 60 | 1009.0 |
| 20260504173003 | 22 | 207 | 11.3 | 30.6 | 0.00 | 0.51 | 0.51 | 59 | 1009.1 |
| 20260504172503 | 22 | 213 | 11.3 | 30.6 | 0.00 | 0.51 | 0.51 | 56 | 1009.2 |
| 20260504172003 | 22 | 219 | 9.7 | 29.0 | 0.00 | 0.51 | 0.51 | 56 | 1009.2 |
| 20260504171524 | 22 | 218 | 8.0 | 29.0 | 0.00 | 0.51 | 0.51 | 60 | 1009.2 |
| 20260504171003 | 22 | 213 | 8.0 | 20.9 | 0.00 | 0.51 | 0.51 | 62 | 1009.2 |
| 20260504170503 | 21 | 208 | 8.0 | 20.9 | 0.00 | 0.51 | 0.51 | 61 | 1009.3 |
| 20260504151003 | 15 | 182 | 6.4 | 19.3 | 0.05 | 0.51 | 0.51 | 84 | 1009.8 |
| 20260504150503 | 13 | 178 | 6.4 | 20.9 | 0.10 | 0.51 | 0.51 | 87 | 1009.8 |
| 20260504141003 | 15 | 249 | 9.7 | 33.8 | 0.20 | 0.46 | 0.46 | 79 | 1010.1 |
| 20260504140524 | 15 | 259 | 11.3 | 29.0 | 0.15 | 0.41 | 0.41 | 77 | 1010.0 |
| 20260504130503 | 12 | 238 | 3.2 | 12.9 | 0.05 | 0.25 | 0.25 | 85 | 1011.5 |
| 20260504110503 | 11 | 178 | 4.8 | 12.9 | 0.05 | 0.20 | 0.20 | 89 | 1010.4 |
| 20260504100503 | 10 | 204 | 4.8 | 16.1 | 0.15 | 0.15 | 0.15 | 85 | 1011.5 |
| 20260504082003 | 12 | 192 | 3.2 | 11.3 | 0.00 | 0.00 | 0.00 | 65 | 1011.7 |
| 20260504081524 | 12 | 189 | 3.2 | 11.3 | 0.00 | 0.00 | 0.00 | 64 | 1011.7 |
| 20260504081003 | 12 | 192 | 3.2 | 11.3 | 0.00 | 0.00 | 0.00 | 64 | 1011.7 |
| 20260504080503 | 12 | 189 | 3.2 | 11.3 | 0.00 | 0.00 | 0.00 | 64 | 1011.9 |